| time (UTC) | temp F | wind direction | speed MPH | gust MPH | rain 1hr in | rain 24hr in | rain mn in | humidity % | barometer mb |
| 20260904132540 | 56 | 18 | 4.0 | 16.0 | 0.00 | 0.04 | 0.00 | 70 | 1015.8 |
| 20260904130329 | 56 | 263 | 5.0 | 16.0 | 0.00 | 0.04 | 0.00 | 71 | 1015.7 |
| 20260904124823 | 56 | 255 | 8.0 | 12.0 | 0.00 | 0.04 | 0.00 | 72 | 1015.4 |
| 20260904123320 | 56 | 298 | 4.0 | 15.0 | 0.00 | 0.04 | 0.00 | 71 | 1015.2 |
| 20260904121816 | 56 | 265 | 4.0 | 15.0 | 0.00 | 0.04 | 0.00 | 71 | 1015.0 |
| 20260904121011 | 56 | 261 | 9.0 | 18.0 | 0.00 | 0.04 | 0.00 | 71 | 1014.8 |
| 20260904114811 | 56 | 271 | 11.0 | 23.0 | 0.00 | 0.04 | 0.04 | 70 | 1014.6 |
| 20260904113307 | 57 | 0 | 18.0 | 26.0 | 0.00 | 0.05 | 0.04 | 69 | 1014.5 |
| 20260904111807 | 56 | 234 | 15.0 | 22.0 | 0.00 | 0.05 | 0.04 | 70 | 1014.4 |
| 20260904110303 | 56 | 221 | 15.0 | 19.0 | 0.00 | 0.05 | 0.04 | 71 | 1014.2 |
| 20260904104803 | 56 | 225 | 13.0 | 18.0 | 0.00 | 0.05 | 0.04 | 70 | 1014.3 |
| 20260904103259 | 56 | 227 | 10.0 | 19.0 | 0.00 | 0.06 | 0.04 | 71 | 1014.3 |
| 20260904101755 | 56 | 257 | 12.0 | 19.0 | 0.00 | 0.06 | 0.04 | 71 | 1014.2 |
| 20260904100255 | 56 | 240 | 16.0 | 22.0 | 0.00 | 0.06 | 0.04 | 71 | 1014.1 |
| 20260904094751 | 56 | 208 | 12.0 | 18.0 | 0.00 | 0.06 | 0.04 | 70 | 1014.1 |
| 20260904093247 | 57 | 242 | 17.0 | 24.0 | 0.00 | 0.06 | 0.04 | 69 | 1013.7 |
| 20260904091747 | 57 | 284 | 16.0 | 23.0 | 0.00 | 0.06 | 0.04 | 71 | 1013.5 |
| 20260904090242 | 57 | 248 | 17.0 | 23.0 | 0.00 | 0.06 | 0.04 | 71 | 1013.3 |
| 20260904085437 | 57 | 244 | 15.0 | 23.0 | 0.00 | 0.06 | 0.04 | 72 | 1013.2 |
| 20260904083240 | 58 | 224 | 19.0 | 23.0 | 0.00 | 0.06 | 0.04 | 74 | 1012.9 |
| 20260904081734 | 58 | 247 | 17.0 | 27.0 | 0.00 | 0.06 | 0.04 | 74 | 1012.6 |
| 20260904080236 | 58 | 246 | 16.0 | 27.0 | 0.00 | 0.06 | 0.04 | 74 | 1012.4 |
| 20260904074732 | 58 | 262 | 23.0 | 28.0 | 0.00 | 0.06 | 0.04 | 73 | 1011.9 |
| 20260904073227 | 59 | 238 | 21.0 | 26.0 | 0.00 | 0.06 | 0.04 | 73 | 1011.8 |
| 20260904071723 | 60 | 277 | 12.0 | 18.0 | 0.00 | 0.06 | 0.04 | 75 | 1011.9 |
| 20260904070218 | 60 | 273 | 12.0 | 21.0 | 0.00 | 0.06 | 0.04 | 74 | 1011.9 |
| 20260904064718 | 60 | 294 | 13.0 | 21.0 | 0.00 | 0.06 | 0.04 | 76 | 1011.7 |
| 20260904063214 | 61 | 253 | 15.0 | 29.0 | 0.02 | 0.06 | 0.04 | 78 | 1011.1 |
| 20260904061716 | 61 | 266 | 11.0 | 16.0 | 0.02 | 0.06 | 0.04 | 81 | 1010.9 |
| 20260904060216 | 61 | 250 | 11.0 | 22.0 | 0.02 | 0.06 | 0.04 | 81 | 1010.8 |
| 20260904054710 | 61 | 243 | 18.0 | 24.0 | 0.02 | 0.06 | 0.04 | 82 | 1010.5 |
| 20260904053211 | 62 | 282 | 14.0 | 21.0 | 0.00 | 0.04 | 0.02 | 81 | 1010.3 |
| 20260904052355 | 62 | 255 | 11.0 | 16.0 | 0.00 | 0.04 | 0.02 | 79 | 1010.2 |
| 20260904050209 | 63 | 273 | 8.0 | 18.0 | 0.00 | 0.04 | 0.02 | 78 | 1009.9 |
| 20260904044658 | 62 | 279 | 10.0 | 18.0 | 0.00 | 0.04 | 0.02 | 77 | 1009.8 |
| 20260904043159 | 63 | 293 | 13.0 | 25.0 | 0.00 | 0.04 | 0.02 | 76 | 1009.8 |
| 20260904041654 | 63 | 297 | 13.0 | 24.0 | 0.00 | 0.04 | 0.02 | 74 | 1009.9 |
| 20260904040155 | 63 | 298 | 12.0 | 24.0 | 0.00 | 0.04 | 0.02 | 74 | 1010.2 |
| 20260904034652 | 63 | 0 | 13.0 | 18.0 | 0.00 | 0.04 | 0.02 | 75 | 1010.6 |
| 20260904033152 | 63 | 288 | 10.0 | 25.0 | 0.00 | 0.04 | 0.02 | 75 | 1010.7 |
| 20260904031647 | 62 | 285 | 16.0 | 25.0 | 0.00 | 0.04 | 0.02 | 75 | 1011.0 |
| 20260904030147 | 62 | 277 | 14.0 | 24.0 | 0.00 | 0.04 | 0.02 | 76 | 1011.0 |
| 20260904024637 | 62 | 316 | 11.0 | 18.0 | 0.00 | 0.04 | 0.02 | 76 | 1011.2 |
| 20260904023844 | 62 | 273 | 12.0 | 20.0 | 0.00 | 0.04 | 0.02 | 75 | 1011.2 |
| 20260904021634 | 62 | 271 | 11.0 | 17.0 | 0.00 | 0.04 | 0.02 | 75 | 1011.4 |
| 20260904020139 | 62 | 273 | 9.0 | 14.0 | 0.00 | 0.04 | 0.02 | 74 | 1011.4 |
| 20260904014630 | 62 | 302 | 10.0 | 18.0 | 0.00 | 0.04 | 0.02 | 76 | 1011.6 |
| 20260904013132 | 61 | 290 | 10.0 | 17.0 | 0.00 | 0.04 | 0.02 | 77 | 1012.0 |
| 20260904011621 | 60 | 280 | 13.0 | 20.0 | 0.00 | 0.04 | 0.02 | 77 | 1012.5 |
| 20260904010829 | 60 | 291 | 9.0 | 23.0 | 0.00 | 0.04 | 0.02 | 75 | 1012.8 |
| 20260904010020 | 61 | 293 | 17.0 | 26.0 | 0.00 | 0.04 | 0.02 | 72 | 1013.2 |
| 20260904003120 | 63 | 294 | 16.0 | 30.0 | 0.00 | 0.04 | 0.02 | 67 | 1013.1 |
| 20260904001613 | 65 | 277 | 16.0 | 26.0 | 0.00 | 0.04 | 0.02 | 66 | 1013.4 |
| 20260904000114 | 64 | 260 | 17.0 | 23.0 | 0.00 | 0.04 | 0.02 | 67 | 1013.4 |
| 20260903234609 | 64 | 240 | 19.0 | 28.0 | 0.00 | 0.04 | 0.02 | 66 | 1013.6 |
| 20260903233105 | 64 | 273 | 12.0 | 25.0 | 0.00 | 0.04 | 0.02 | 66 | 1014.0 |
| 20260903231605 | 62 | 276 | 11.0 | 28.0 | 0.00 | 0.04 | 0.02 | 69 | 1014.2 |
| 20260903230105 | 61 | 265 | 19.0 | 27.0 | 0.00 | 0.04 | 0.02 | 68 | 1014.2 |
| 20260903224603 | 62 | 284 | 18.0 | 26.0 | 0.00 | 0.04 | 0.02 | 68 | 1014.3 |
| 20260903223057 | 61 | 290 | 15.0 | 23.0 | 0.00 | 0.04 | 0.02 | 70 | 1014.4 |
| 20260903221557 | 60 | 263 | 17.0 | 22.0 | 0.00 | 0.04 | 0.02 | 71 | 1014.5 |
| 20260903220053 | 60 | 265 | 15.0 | 26.0 | 0.00 | 0.04 | 0.02 | 71 | 1014.5 |
| 20260903215250 | 60 | 246 | 15.0 | 30.0 | 0.00 | 0.04 | 0.02 | 71 | 1014.5 |
| 20260903213048 | 60 | 284 | 23.0 | 31.0 | 0.00 | 0.04 | 0.02 | 70 | 1014.8 |
| 20260903211549 | 61 | 273 | 23.0 | 36.0 | 0.00 | 0.04 | 0.02 | 70 | 1014.8 |
| 20260903210045 | 61 | 284 | 25.0 | 34.0 | 0.00 | 0.04 | 0.02 | 71 | 1014.7 |
| 20260903204540 | 60 | 271 | 23.0 | 35.0 | 0.00 | 0.04 | 0.02 | 73 | 1014.7 |
| 20260903203041 | 60 | 246 | 26.0 | 34.0 | 0.00 | 0.04 | 0.02 | 73 | 1015.3 |
| 20260903201537 | 59 | 240 | 19.0 | 27.0 | 0.00 | 0.04 | 0.02 | 76 | 1015.3 |
| 20260903200032 | 59 | 265 | 12.0 | 24.0 | 0.00 | 0.04 | 0.02 | 78 | 1015.7 |
| 20260903194527 | 58 | 275 | 10.0 | 12.0 | 0.00 | 0.04 | 0.02 | 80 | 1015.8 |
| 20260903193028 | 57 | 304 | 6.0 | 9.0 | 0.00 | 0.04 | 0.02 | 80 | 1015.9 |
| 20260903191525 | 58 | 280 | 7.0 | 11.0 | 0.00 | 0.04 | 0.02 | 80 | 1016.0 |
| 20260903190024 | 58 | 261 | 4.0 | 7.0 | 0.00 | 0.04 | 0.02 | 80 | 1016.1 |
| 20260903184520 | 58 | 296 | 3.0 | 8.0 | 0.00 | 0.04 | 0.02 | 79 | 1016.2 |
| 20260903183614 | 58 | 286 | 4.0 | 10.0 | 0.00 | 0.04 | 0.02 | 79 | 1016.2 |
| 20260903183033 | 58 | 294 | 8.0 | 12.0 | 0.00 | 0.04 | 0.02 | 79 | 1016.3 |
| 20260903180012 | 58 | 313 | 3.0 | 11.0 | 0.00 | 0.04 | 0.02 | 79 | 1016.2 |
| 20260903174508 | 58 | 294 | 7.0 | 14.0 | 0.00 | 0.04 | 0.02 | 79 | 1016.2 |
| 20260903173008 | 58 | 300 | 5.0 | 15.0 | 0.00 | 0.04 | 0.02 | 79 | 1016.3 |
| 20260903171504 | 58 | 294 | 8.0 | 12.0 | 0.00 | 0.04 | 0.02 | 79 | 1016.4 |
| 20260903170004 | 58 | 288 | 5.0 | 13.0 | 0.00 | 0.04 | 0.02 | 80 | 1016.5 |
| 20260903164501 | 58 | 287 | 5.0 | 13.0 | 0.00 | 0.04 | 0.02 | 80 | 1016.6 |
| 20260903162956 | 58 | 275 | 9.0 | 14.0 | 0.00 | 0.04 | 0.02 | 80 | 1016.6 |
| 20260903161456 | 58 | 316 | 10.0 | 14.0 | 0.00 | 0.04 | 0.02 | 81 | 1016.4 |
| 20260903155952 | 58 | 286 | 5.0 | 15.0 | 0.00 | 0.04 | 0.02 | 81 | 1016.2 |
| 20260903155852 | 58 | 294 | 9.0 | 19.0 | 0.00 | 0.04 | 0.02 | 81 | 1016.2 |
| 20260903152949 | 58 | 288 | 15.0 | 21.0 | 0.00 | 0.04 | 0.02 | 81 | 1016.2 |
| 20260903151444 | 58 | 250 | 11.0 | 19.0 | 0.00 | 0.04 | 0.02 | 81 | 1016.4 |
| 20260903145939 | 59 | 305 | 11.0 | 20.0 | 0.00 | 0.04 | 0.02 | 82 | 1016.5 |
| 20260903144441 | 59 | 329 | 9.0 | 20.0 | 0.02 | 0.04 | 0.02 | 83 | 1016.5 |
| 20260903142937 | 59 | 252 | 11.0 | 19.0 | 0.02 | 0.04 | 0.02 | 83 | 1016.8 |
| 20260903141437 | 59 | 282 | 11.0 | 15.0 | 0.02 | 0.04 | 0.02 | 84 | 1017.0 |
| 20260903140620 | 59 | 281 | 8.0 | 17.0 | 0.02 | 0.04 | 0.02 | 84 | 1017.1 |
| 20260903134433 | 59 | 271 | 10.0 | 16.0 | 0.00 | 0.02 | 0.00 | 84 | 1017.1 |